Regional Weather Roundup
Issued by NWS

Home | Current Version | Previous Version | Graphics & Text | Print | Product List | Glossary On
Versions: 1 2 3 4 5 6 7 8 9 10 11 12 13 14 15 16 17 18 19 20 21 22 23 24 25 26 27
000
ASUS45 KSLC 300210
RWRUT

UTAH REGIONAL WEATHER ROUNDUP
NATIONAL WEATHER SERVICE SALT LAKE CITY UT
800 PM MDT THU SEP 29 2016

UTZ001>011-023>025-300300-

NORTHERN UTAH

CITY           SKY/WX    TMP DP  RH WIND       PRES   REMARKS
BRIGHAM CITY     N/A     65  53  64 CALM      30.18S
HILL AFB       PTCLDY    66  49  53 N3        30.19S
LOGAN          CLEAR     60  53  77 E6        30.18S
OGDEN          CLOUDY    63  53  70 NW3       30.17S
PROVO AIRPORT  MOCLDY    69  49  48 S6        30.19S
SALT LAKE CITY PTCLDY    67  52  58 SW7       30.16S
VERNAL         CLOUDY    61  56  83 NW5       30.32F
WENDOVER       MOCLDY   N/A N/A N/A MISG        N/A
HEBER CITY     MOCLDY    64  45  48 SE7       30.24R
WEST JORDAN    CLEAR     64  52  64 SW6       30.20R

$$

UTZ012>022-026-027-300300-

SOUTHERN/CENTRAL UTAH

CITY           SKY/WX    TMP DP  RH WIND       PRES   REMARKS
BLANDING       CLOUDY    56  53  92 NE6       30.46F
BRYCE CANYON   CLOUDY    50  48  93 CALM      30.43S
CEDAR CITY     PTCLDY    63  48  58 SW10      30.27R
DELTA          MOCLDY    66  41  39 SW5       30.20S
MILFORD        MOCLDY    71  46  40 S9        30.21R
MOAB/CYNLANDS  CLOUDY    66  52  60 SE8       30.28R
PRICE            N/A     55  50  83 NE7       30.35
ST GEORGE      PTCLDY    73  52  46 E21G26    30.16R

$$

REGIONAL REPORTS     COLORADO/ARIZONA

CITY           SKY/WX    TMP DP  RH WIND       PRES   REMARKS
CRAIG, CO      CLOUDY    57  50  77 CALM      30.38S
GRAND JUNCTION CLOUDY    63  59  87 E5        30.33S
RIFLE          CLOUDY    62  54  74 CALM      30.36R
MONTROSE       CLOUDY    60  49  66 W5        30.40S
CORTEZ         CLOUDY    56  53  90 CALM      30.40F
PAGE, AZ       MOCLDY    64  59  83 NE6       30.26S
GRAND CANYON   CLOUDY    54  50  86 E3        30.37F
KINGMAN        CLOUDY    78  46  32 SW9       30.15S
FLAGSTAFF      CLEAR     50  49  96 CALM      30.39S

$$

REGIONAL REPORTS    NEVADA/IDAHO/WYOMING

CITY           SKY/WX    TMP DP  RH WIND       PRES   REMARKS
LAS VEGAS, NV  PTCLDY    87  45  23 SE5       30.03S
ELY            CLEAR     59  38  45 SE8       30.27R
ELKO           CLOUDY    68  39  34 SE14      30.17R
POCATELLO, ID  MOCLDY    66  48  52 E9        30.15R
EVANSTON, WY   CLOUDY    58  41  53 SW6       30.33S
ROCK SPRINGS   CLOUDY    57  44  62 S14       30.32R

$$




USA.gov is the U.S. government's official web portal to all federal, state and local government web resources and services.